Weather History for Ft Lauderdale, FL

Change the Weather History Date:

Thursday, February 28, 2013

  Actual Average Record
Temperature  
Mean Temperature 67 °F 72 °F  
Max Temperature 73 °F 78 °F 90 °F (1956)
Min Temperature 61 °F 65 °F 38 °F (1952)
Degree Days  
Heating Degree Days 0 1  
Month to date heating degree days 19 28  
Since 1 July heating degree days 102  
Cooling Degree Days 2 7  
Month to date cooling degree days 202 186  
Year to date cooling degree days 457 356  
Growing Degree Days 17 (Base 50)    
Moisture  
Dew Point 53 °F    
Average Humidity 66    
Maximum Humidity 93    
Minimum Humidity 38    
Precipitation  
Precipitation T in 0.08 in 1.72 in (1983)
Month to date precipitation 2.14 2.96  
Year to date precipitation 3.12 6.59  
Snow  
Snow 0.00 in - - ()
Month to date snowfall 0.0  
Since 1 July snowfall 0.0  
Snow Depth 0.00 in    
Sea Level Pressure  
Sea Level Pressure 29.96 in    
Wind  
Wind Speed 9 mph (WNW)    
Max Wind Speed 17 mph    
Max Gust Speed 23 mph    
Visibility 10 miles    
Events Rain    
T = Trace of Precipitation, MM = Missing Value Source: NWS Daily Summary

Daily Weather History Graph

Daily Weather History Graph

Search for Another Location

Airport:

Trip Planner

Search our weather history database for the weather conditions in past years. The results will help you decide how hot, cold, wet, or windy it might be!

Date:

Astronomy

Feb. 28, 2013 Rise Set
Actual Time 6:44 AM EST 6:21 PM EST
Civil Twilight 6:21 AM EST 6:44 PM EST
Nautical Twilight 5:54 AM EST 7:11 PM EST
Astronomical Twilight 5:28 AM EST 7:38 PM EST
Moon 9:20 PM EST (2/28) 8:15 AM EST (2/28)
Length of Visible Light 12h 23m
Length of Day
11h 37m
Waning Gibbous, 91% of the Moon is Illuminated
Feb 28
Waning Gibbous
Mar 4
Last Quarter
Mar 11
New
Mar 19
First Quarter
Mar 27
Full

Hourly Weather History & Observations

Time (EST) Temp. Dew Point Humidity Pressure Visibility Wind Dir Wind Speed Gust Speed Precip Events Conditions
12:03 AM 66.2 °F 64.4 °F 94% 29.96 in 10.0 mi NW 8.1 mph - N/A   Overcast
12:53 AM 66.9 °F 64.0 °F 90% 29.96 in 10.0 mi West 8.1 mph - 0.00 in Rain Light Rain
1:53 AM 66.9 °F 63.0 °F 87% 29.92 in 10.0 mi WNW 8.1 mph - 0.00 in   Overcast
2:53 AM 66.0 °F 62.1 °F 87% 29.92 in 10.0 mi West 6.9 mph - N/A   Scattered Clouds
3:53 AM 64.9 °F 60.1 °F 84% 29.92 in 10.0 mi NW 9.2 mph - N/A   Scattered Clouds
4:53 AM 63.0 °F 55.9 °F 78% 29.94 in 10.0 mi NW 11.5 mph 23.0 mph N/A   Partly Cloudy
5:53 AM 62.1 °F 54.0 °F 75% 29.95 in 10.0 mi NW 13.8 mph - N/A   Mostly Cloudy
6:53 AM 61.0 °F 53.1 °F 75% 29.97 in 10.0 mi NW 6.9 mph - N/A   Mostly Cloudy
7:53 AM 61.0 °F 52.0 °F 72% 29.99 in 10.0 mi NW 12.7 mph - N/A   Scattered Clouds
8:53 AM 62.1 °F 52.0 °F 70% 30.00 in 10.0 mi NNW 10.4 mph - N/A   Scattered Clouds
9:53 AM 64.9 °F 52.0 °F 63% 30.00 in 10.0 mi NNW 9.2 mph - N/A   Mostly Cloudy
10:53 AM 66.9 °F 50.0 °F 54% 30.00 in 10.0 mi NW 10.4 mph - N/A   Overcast
11:53 AM 69.1 °F 46.0 °F 44% 30.00 in 10.0 mi NNW 11.5 mph - N/A   Overcast
12:53 PM 73.0 °F 46.9 °F 39% 29.97 in 10.0 mi NNW 9.2 mph - N/A   Partly Cloudy
1:53 PM 69.1 °F 48.9 °F 49% 29.94 in 10.0 mi NNW 9.2 mph - N/A   Mostly Cloudy
2:53 PM 68.0 °F 51.1 °F 55% 29.94 in 10.0 mi NNW 9.2 mph - N/A   Overcast
3:53 PM 68.0 °F 46.9 °F 47% 29.93 in 10.0 mi NW 6.9 mph - N/A   Mostly Cloudy
4:53 PM 69.1 °F 48.0 °F 47% 29.92 in 10.0 mi West 5.8 mph - N/A   Mostly Cloudy
5:53 PM 68.0 °F 46.9 °F 47% 29.93 in 10.0 mi West 5.8 mph - N/A   Partly Cloudy
6:53 PM 66.9 °F 48.9 °F 52% 29.95 in 10.0 mi West 5.8 mph - N/A   Mostly Cloudy
7:53 PM 66.0 °F 50.0 °F 56% 29.95 in 10.0 mi SW 3.5 mph - N/A   Mostly Cloudy
8:53 PM 66.0 °F 50.0 °F 56% 29.96 in 10.0 mi WSW 3.5 mph - N/A   Partly Cloudy
9:53 PM 66.0 °F 48.0 °F 52% 29.96 in 10.0 mi WSW 3.5 mph - N/A   Mostly Cloudy
10:53 PM 66.0 °F 48.0 °F 52% 29.95 in 10.0 mi West 4.6 mph - N/A   Overcast
11:53 PM 66.0 °F 51.1 °F 59% 29.95 in 10.0 mi West 6.9 mph - N/A   Mostly Cloudy